Meteo Giornale » Osservazioni meteo Gran Bretagna » Tees-Side

ore: 10:20 - Osservazioni Meteo Tees-Side
Lat. 54° 31' N Lon. 1° 25' W Alt. 37 metri s.l.m.

sereno Europe/London

7 °C

Sereno

Temp. 24 Ore

3 °C

13 °C

Sud

22.2 Km/h

Dew point 5 °C

Umidità 87 %

Visibilità  10 Km

Il sole sorge alle ore 07:41

Il sole tramonta alle ore 17:59

Data e Ora Cielo e Fenomeni T °C DP °C Um. % Pres. hPa Vis. km Vento km/h
Oggi h: 10:20 sereno Sereno 7 5 87 1024 10 S 22.2
Oggi h: 09:50 sereno Sereno 6 5 93 1024 9 S 22.2
Oggi h: 09:20 sereno Sereno 6 5 93 1024 9 S/SO 11.1
Oggi h: 08:50 sereno Sereno 5 4 93 1024 7 S 18.5
Oggi h: 08:20 foschia Foschia 4 4 100 1024 4 S 13
Oggi h: 07:50 foschia Foschia 3 3 100 1024 2 SO 11.1
Oggi h: 07:20 foschia Foschia 3 3 100 1024 2 SO 16.7
Oggi h: 06:50 foschia Foschia 4 3 93 1024 2 SO 11.1
Oggi h: 06:20 nebbia Nebbia 4 4 100 1024 0.8 S/SO 13
Oggi h: 05:50 foschia Foschia 4 4 100 1025 2 SO 11.1
Ieri h: 21:50 sereno Sereno 3 2 93 1027 10 N 0
Ieri h: 21:20 sereno Sereno 5 4 93 1027 10 N 0
Ieri h: 20:50 sereno Sereno 5 3 86 1027 10 N 5.5
Ieri h: 20:20 sereno Sereno 4 2 86 1027 10 SE 7.4
Ieri h: 19:50 sereno Sereno 5 3 86 1027 10 SE 9.3
Ieri h: 19:20 sereno Sereno 6 3 81 1028 10 E/SE 9.3
Ieri h: 18:50 sereno Sereno 7 4 81 1028 10 E/SE 9.3
Ieri h: 18:20 sereno Sereno 8 3 70 1028 10 E/SE 9.3
Ieri h: 17:50 sereno Sereno 9 5 75 1028 10 E 9.3
Ieri h: 17:20 poco_nuvoloso Poco Nuvoloso 12 4 57 1028 10 E/NE 11.1
Ieri h: 16:50 poco_nuvoloso Poco Nuvoloso 13 3 50 1028 10 N 1.8
Ieri h: 16:20 poco_nuvoloso Poco Nuvoloso 12 3 54 1028 10 N 1.8
Ieri h: 15:50 poco_nuvoloso Poco Nuvoloso 13 3 50 1028 10 N 1.8
Ieri h: 15:20 poco_nuvoloso Poco Nuvoloso 12 4 57 1028 10 N 3.7
Ieri h: 14:50 poco_nuvoloso Poco Nuvoloso 13 4 54 1028 10 N 7.4
Ieri h: 14:20 poco_nuvoloso Poco Nuvoloso 12 4 57 1028 10 N 3.7
Ieri h: 13:50 poco_nuvoloso Poco Nuvoloso 12 4 57 1029 10 N 1.8
Ieri h: 12:50 poco_nuvoloso Poco Nuvoloso 11 5 66 1029 10 N 5.5
Ieri h: 12:20 poco_nuvoloso Poco Nuvoloso 10 5 71 1029 10 N 3.7
Ieri h: 11:50 sereno Sereno 10 5 71 1029 10 N 1.8
Ieri h: 11:20 sereno Sereno 9 4 70 1029 10 N 3.7
Ieri h: 10:50 sereno Sereno 8 4 75 1030 10 N 3.7